Wind_Speed
14 20 23 22 23 22 20 21 20 22 22 21 21 21 23 26 26 26 27 25 27 29 29 29 31 31 30 30 29 27 24 24 27 27 25 24 25 24 23 23 22 22 23 23 21 20 21 21 22 21 20 19 21 22 25 29 34 37 38 38 37 35 32 30 29 28 29 29 27 25 25 26 26 26 26 26 27 27 25 24 23 23 24 24 23 22 23
12 16 21 23 24 22 22 23 22 22 24 25 24 25 26 27 26 27 27 26 27 29 29 29 30 29 28 27 27 28 27 25 25 27 27 27 28 26 25 26 28 27 25 25 25 23 24 24 24 25 22 20 20 20 19 22 27 32 35 38 39 38 35 32 30 30 30 30 29 27 27 27 28 28 27 27 28 27 24 24 25 26 26 26 25 24 24
16 15 17 19 21 20 21 23 21 21 23 23 23 27 27 25 27 28 28 27 27 27 29 30 30 29 29 27 25 26 28 27 25 26 27 28 30 29 26 25 26 27 26 27 26 24 26 26 26 27 25 22 21 21 21 21 21 24 28 34 38 39 38 35 32 31 31 32 31 30 30 30 31 31 30 30 30 29 26 25 26 27 27 26 27 27 26
15 15 15 17 20 21 20 19 20 21 22 21 22 25 23 22 25 26 26 26 24 25 27 29 29 28 27 27 27 26 25 25 24 25 28 30 31 31 27 24 25 27 27 26 26 24 24 26 26 26 26 25 23 23 23 24 23 22 23 26 31 35 37 37 35 33 33 33 33 33 33 33 34 33 32 33 32 29 28 28 28 29 28 27 28 28 28
9 9 10 12 15 17 17 17 19 20 21 21 22 23 21 21 24 23 23 23 21 23 25 26 27 26 25 26 26 25 24 24 23 24 27 30 31 32 32 30 29 28 26 23 22 22 22 24 25 24 24 23 23 22 23 25 27 26 24 23 23 26 32 37 37 36 35 35 36 36 36 35 36 35 34 34 33 31 30 30 31 30 30 29 29 29 29
11 5 10 12 11 12 15 17 17 18 19 19 19 19 20 21 22 22 22 22 21 22 23 24 24 25 24 25 24 23 23 23 23 25 27 30 31 32 34 35 32 28 26 23 21 20 20 21 22 22 21 20 20 21 22 24 27 28 27 26 24 23 27 33 38 38 38 38 38 38 38 38 37 36 35 35 35 34 32 33 33 31 31 31 30 31 31
14 10 11 14 12 14 17 16 17 19 20 18 17 18 20 20 20 21 21 22 22 22 23 23 23 23 23 23 22 22 22 23 24 25 27 29 32 33 34 34 31 29 27 26 23 20 19 19 20 19 19 17 17 18 19 21 24 27 28 29 28 26 27 30 38 43 41 40 41 39 39 40 39 37 37 37 37 37 36 36 34 32 32 32 32 33 33
18 17 14 12 12 16 18 17 18 20 19 18 17 19 20 19 19 21 22 21 21 23 23 23 22 21 21 22 22 23 23 24 25 27 27 28 31 35 35 34 32 31 31 31 28 23 20 19 19 18 16 15 14 15 16 17 19 22 25 27 28 28 27 26 33 44 45 42 41 39 39 40 40 40 40 38 38 38 38 38 37 34 33 33 35 36 36
20 21 18 14 13 15 17 17 17 17 18 20 20 20 21 19 18 21 22 21 22 22 22 22 21 20 20 21 23 24 24 25 26 28 29 29 30 33 35 34 33 33 35 34 30 25 23 20 18 17 15 14 13 12 11 13 14 15 18 20 22 25 25 23 24 37 43 40 39 39 39 40 40 40 41 39 38 38 39 39 39 36 34 35 35 37 39
16 16 16 15 14 14 16 17 15 13 16 19 19 19 21 20 19 21 21 21 22 21 20 20 19 18 18 18 20 22 24 25 26 28 29 29 31 32 31 32 34 35 38 38 32 27 27 23 19 16 14 13 12 9 7 8 9 11 12 12 15 19 21 19 19 26 34 36 36 35 34 35 36 38 41 42 41 40 40 40 40 38 36 35 34 35 37
14 13 14 14 14 18 22 21 19 17 17 17 18 19 21 19 19 21 21 21 22 21 20 19 18 17 17 17 19 21 22 23 25 27 28 29 31 32 29 30 35 37 37 37 32 28 27 23 19 15 12 12 11 11 11 11 10 11 10 9 12 16 17 17 17 19 22 25 24 22 20 20 23 27 33 39 43 44 43 40 39 38 36 34 33 32 35
19 17 15 12 13 20 23 22 23 23 20 19 20 21 22 20 18 20 21 21 20 20 19 19 16 15 16 17 18 19 19 20 22 25 28 28 29 30 28 29 34 36 34 32 28 25 23 20 17 14 11 11 11 12 13 12 12 12 10 9 12 15 16 19 21 21 21 20 18 17 14 13 14 16 20 26 33 39 41 41 40 39 36 33 31 31 33
20 22 20 14 15 21 22 21 23 23 19 20 21 22 23 22 19 19 21 22 21 19 18 18 17 16 16 16 18 18 17 19 20 22 26 27 26 26 27 26 27 29 30 29 25 22 20 18 16 14 12 12 11 11 11 10 10 11 10 9 9 10 13 16 18 20 22 23 23 22 21 19 17 16 17 18 20 23 27 32 36 38 38 35 33 36 34
17 21 20 16 19 25 25 23 25 23 19 20 20 20 22 23 21 20 20 20 20 19 17 17 17 17 16 15 15 16 17 19 20 20 22 24 23 23 25 25 22 20 22 23 21 20 19 17 16 15 14 14 13 13 12 11 11 11 12 13 12 11 12 12 14 16 19 21 23 25 25 23 20 18 18 18 18 17 16 19 22 28 33 34 34 37 35
15 19 19 18 22 28 27 24 24 22 19 20 20 19 21 22 21 20 20 19 20 19 18 17 16 15 14 13 14 15 17 19 21 21 21 21 21 22 23 22 21 21 22 22 22 21 20 18 18 17 17 17 16 15 14 13 12 13 14 15 15 15 14 13 13 14 15 17 19 20 22 22 21 19 18 18 19 18 17 17 17 19 24 27 29 30 31
12 16 21 24 27 29 27 25 24 21 19 20 21 20 21 22 21 21 20 20 20 19 19 18 16 14 12 12 14 15 16 18 20 22 22 20 19 20 21 20 20 21 23 23 23 22 21 20 20 20 19 19 18 18 17 16 15 15 16 16 17 17 16 16 15 15 15 16 16 17 18 19 20 20 19 18 18 19 19 19 19 19 20 22 23 25 27
15 18 23 28 29 29 28 26 24 21 19 20 21 21 21 22 21 20 19 20 20 19 19 18 16 14 13 12 13 14 15 16 18 20 21 20 19 19 20 21 21 22 22 22 22 22 22 22 22 22 22 22 21 20 20 18 17 17 17 18 19 19 19 19 18 18 18 18 18 18 18 18 19 20 20 19 19 19 20 20 21 21 21 21 22 23 25
19 20 21 23 26 28 26 24 22 21 20 19 20 20 20 21 21 19 18 18 19 18 18 18 17 15 13 12 12 13 13 14 16 18 20 20 20 21 22 22 23 24 24 24 23 23 24 25 24 24 24 24 23 23 21 20 20 19 19 20 21 21 22 22 22 22 22 21 21 21 21 21 21 21 21 21 21 21 21 21 21 21 22 22 22 22 23
21 23 22 21 24 27 27 24 22 21 21 19 19 19 19 20 20 20 19 18 17 17 17 16 16 15 14 11 11 11 12 13 14 16 19 20 20 22 23 25 26 27 28 28 28 28 28 28 27 26 26 25 25 24 23 22 21 21 21 21 22 23 24 24 25 25 25 24 24 24 24 24 24 24 24 23 23 23 23 22 22 22 22 23 23 23 23
23 25 24 24 25 27 27 25 22 22 22 21 20 20 19 20 20 19 19 19 17 17 17 16 15 15 14 12 11 10 12 13 14 14 16 19 21 23 24 25 26 28 29 30 30 31 31 31 30 28 27 26 26 25 24 23 22 22 22 22 23 24 24 25 26 27 27 27 26 26 26 26 26 26 26 26 25 25 25 24 24 24 24 24 25 25 25
23 23 23 25 26 27 27 26 24 23 23 21 21 20 19 19 19 19 18 17 17 16 16 15 15 14 14 13 11 11 11 13 14 14 15 17 20 22 23 25 25 26 27 28 28 29 29 30 30 29 28 28 28 27 26 25 24 23 22 22 23 24 25 26 27 27 28 28 27 27 27 27 27 27 27 27 27 26 26 26 26 26 26 27 27 27 28
20 21 21 23 25 25 27 27 25 24 23 22 21 20 19 18 19 18 17 16 16 15 15 15 14 13 13 12 11 11 12 12 13 14 13 14 16 19 21 22 24 25 26 28 28 28 28 28 28 29 29 29 28 27 26 25 25 24 22 22 22 23 24 25 26 26 26 27 27 27 27 28 28 28 28 28 27 27 27 27 27 27 27 28 29 29 30
20 21 21 21 22 23 25 25 24 23 23 22 20 19 18 19 18 17 16 16 15 14 14 14 14 12 11 11 11 12 12 13 13 13 13 12 13 14 16 17 19 21 23 26 28 29 29 28 28 28 28 28 27 26 25 25 24 23 22 21 21 21 22 23 23 23 24 24 24 25 26 26 27 28 28 28 28 28 28 27 27 28 28 28 29 29 30
24 24 21 21 21 22 22 23 22 21 21 20 19 19 19 19 18 17 16 16 15 14 13 13 13 11 11 10 11 13 13 13 14 13 13 12 12 12 13 13 14 16 18 19 22 25 26 27 27 26 26 26 25 24 23 22 22 22 21 20 20 20 20 20 21 21 21 22 23 23 24 25 25 26 27 28 28 28 28 28 28 29 29 29 29 30 30
26 25 23 21 22 23 22 21 20 20 19 19 19 19 19 18 18 17 16 15 14 14 13 12 12 11 10 10 11 12 13 14 14 13 13 13 13 12 12 12 12 13 14 15 16 18 20 21 21 21 22 22 21 20 19 19 19 19 19 19 19 19 19 19 19 20 20 21 21 22 23 23 24 24 25 26 27 28 28 29 30 30 31 31 31 31 31
26 26 24 23 24 26 25 21 19 19 19 18 19 19 18 18 18 17 16 15 15 14 13 12 12 11 10 11 11 12 13 13 13 13 13 13 14 13 12 12 13 13 13 13 14 15 15 16 16 16 17 17 17 17 16 16 16 17 17 18 18 18 18 18 18 18 19 20 20 21 22 23 23 24 25 25 26 27 28 29 31 31 32 33 33 33 34
27 26 26 24 24 25 25 22 21 20 19 18 19 19 18 18 17 16 16 15 15 14 14 13 12 11 11 11 11 12 13 13 13 12 12 12 13 13 12 12 12 13 13 14 14 14 14 14 14 14 14 15 15 15 15 15 15 15 16 16 16 17 17 17 17 17 18 18 19 20 21 22 22 23 24 25 26 26 27 27 29 30 31 33 34 35 35
27 27 27 25 24 24 24 23 22 21 20 19 19 19 18 18 17 17 16 15 15 15 14 12 11 11 11 11 12 13 13 13 13 13 12 12 12 12 12 11 12 13 13 13 13 13 13 13 13 13 13 13 13 14 14 14 14 15 15 15 16 16 16 16 16 16 16 16 17 18 19 20 21 22 23 24 25 26 27 27 28 29 29 31 33 34 35
27 27 26 25 26 26 24 22 22 21 20 20 20 19 19 18 18 17 17 16 15 14 13 11 11 10 11 11 12 13 14 14 14 13 13 12 12 12 12 12 12 12 12 13 13 13 13 13 13 13 13 13 14 14 15 15 15 15 15 15 15 15 14 14 14 15 16 16 17 18 19 20 21 22 23 25 26 27 28 28 29 30 31 31 32 34 35
27 27 26 26 27 26 24 22 23 23 21 21 21 20 19 19 19 18 17 16 14 13 12 11 10 10 10 10 10 11 12 13 13 13 13 13 13 13 13 13 13 13 13 13 13 13 13 14 14 14 14 15 15 15 15 15 15 15 14 14 14 14 14 14 15 16 17 18 19 20 21 21 22 24 25 26 28 29 30 31 31 32 33 34 34 34 35
26 26 26 26 26 26 25 24 23 23 22 22 22 21 20 20 20 18 17 16 14 12 11 11 10 9 9 9 9 9 9 10 10 11 11 12 12 12 13 13 13 14 14 15 15 14 14 14 14 14 14 14 13 13 13 13 13 13 13 14 14 15 15 16 17 17 18 19 20 21 23 24 25 27 28 30 30 31 31 32 32 32 33 34 34 34 35
25 24 25 25 25 26 26 24 23 23 23 23 22 22 21 21 20 19 17 17 15 13 11 10 10 10 10 9 9 9 8 8 8 9 9 9 9 10 10 10 11 11 12 12 13 13 12 12 12 12 12 12 11 11 12 13 13 14 15 16 16 17 18 19 19 20 21 21 22 23 25 26 28 30 31 32 33 33 33 33 33 34 34 35 35 36 37
25 24 25 26 26 26 25 24 23 24 24 24 24 23 22 21 20 19 18 18 17 15 12 11 10 10 11 11 10 10 9 9 9 8 8 8 8 9 8 8 8 9 9 10 10 10 10 11 11 11 11 12 12 12 13 14 15 16 17 18 18 19 19 20 21 22 23 24 25 26 27 29 30 31 32 33 34 34 35 36 37 38 38 38 38 39 41
24 23 24 26 27 27 26 25 25 25 25 25 25 24 22 21 20 20 20 20 19 17 15 13 12 12 11 11 11 11 10 10 10 10 9 9 9 9 9 9 9 9 9 10 11 11 11 12 13 13 13 14 14 14 15 16 16 17 18 19 20 20 21 22 23 24 25 26 27 28 30 31 32 33 34 35 35 36 36 38 39 41 42 43 43 44 45
25 24 25 27 29 29 28 27 26 26 26 27 26 25 23 22 21 21 21 22 21 19 17 15 15 14 14 13 13 13 13 12 12 12 11 11 11 11 11 11 11 11 11 12 13 14 14 15 16 16 16 16 17 17 18 18 19 20 20 21 21 22 23 24 25 26 27 28 30 31 32 33 34 35 36 36 37 38 38 40 41 42 44 46 46 47 48
26 26 27 27 28 29 29 27 27 26 26 27 27 26 24 22 21 22 23 23 23 21 19 18 17 17 16 16 15 15 15 14 14 13 13 12 12 12 12 12 12 13 13 14 16 16 16 18 19 19 19 19 20 20 21 22 22 22 22 23 23 24 25 26 27 28 30 31 32 34 35 36 37 38 38 39 40 41 42 43 44 45 46 48 48 48 50
27 28 28 26 26 28 28 27 26 25 26 28 28 27 25 24 23 22 24 24 24 23 21 20 19 18 18 18 17 17 16 16 15 14 13 13 13 12 12 12 13 14 15 16 17 17 18 19 20 20 20 20 21 21 22 22 22 23 23 24 25 26 27 28 29 31 32 34 35 36 37 38 39 40 40 41 43 44 45 47 48 49 49 50 51 50 50
27 28 28 27 27 28 29 28 27 27 28 29 29 28 27 25 24 23 24 25 25 24 23 21 20 19 19 18 18 17 17 16 15 15 14 13 13 13 13 14 15 16 17 17 17 17 18 20 19 19 19 20 20 20 21 22 23 24 25 26 27 28 29 31 32 33 35 36 37 38 39 40 41 42 43 44 45 47 49 50 51 51 52 52 52 52 51
27 27 27 28 29 29 30 29 28 28 30 30 29 28 27 26 24 24 25 26 26 25 24 23 21 20 19 18 18 18 17 17 16 15 15 15 15 15 15 16 16 17 18 17 15 16 18 19 18 18 18 19 20 21 22 24 25 26 27 28 29 31 32 33 34 35 36 37 39 40 41 42 42 44 45 46 48 50 51 52 52 53 53 53 53 52 52
27 26 28 29 29 30 31 31 29 29 31 31 29 29 29 27 25 24 25 26 27 26 25 24 22 21 20 19 18 18 18 18 18 17 17 17 17 18 17 16 17 18 19 17 15 16 18 19 19 19 20 21 23 24 25 26 28 29 30 31 32 33 34 35 35 36 38 39 40 41 42 43 44 46 47 49 50 51 52 52 53 53 53 53 52 51 50
25 26 27 28 27 28 30 31 31 32 32 31 29 29 29 28 26 25 25 26 27 27 26 25 24 23 21 20 19 20 20 20 20 19 19 19 19 20 19 17 17 19 20 19 18 19 20 21 22 23 24 25 26 27 28 29 29 30 31 32 33 34 35 36 36 37 39 40 41 42 43 44 46 48 49 50 51 52 53 53 53 53 52 51 50 49 49
24 25 26 26 26 26 27 28 29 30 30 29 28 28 28 27 26 26 26 26 27 27 27 26 25 24 23 21 21 21 21 22 22 22 21 21 21 21 20 19 19 21 22 22 21 22 23 23 25 26 26 26 28 28 29 30 31 31 33 34 35 35 36 37 38 39 40 41 42 44 45 46 48 50 51 51 52 52 52 52 52 51 50 49 49 48 48
24 24 24 25 25 25 26 28 29 30 29 29 28 28 27 26 27 27 26 27 28 28 28 27 26 26 24 23 23 22 23 23 24 23 23 22 23 24 23 21 21 23 24 24 23 24 24 25 27 27 27 28 28 29 30 31 32 33 34 35 36 37 38 38 39 41 42 43 44 45 47 48 49 50 50 51 51 51 51 50 49 48 48 48 48 48 48
24 23 23 24 25 26 28 30 32 32 31 31 30 29 28 28 28 28 27 28 28 29 29 28 28 27 26 25 24 24 24 24 25 24 24 24 24 25 26 25 24 24 25 26 26 26 26 27 28 28 28 29 29 30 32 33 34 35 36 37 37 38 39 40 41 42 43 44 46 47 48 49 49 50 50 50 49 49 48 48 47 47 48 48 48 48 48
24 23 23 25 26 28 29 30 31 31 30 30 31 31 30 29 29 29 29 29 29 29 30 29 29 28 28 27 26 26 26 25 25 25 25 25 25 26 28 28 27 26 27 28 27 28 28 29 30 30 30 31 32 33 34 35 36 37 37 38 38 39 40 41 42 43 44 46 47 48 48 49 49 49 49 48 48 47 46 46 47 47 47 47 48 48 48
22 22 23 24 24 26 28 29 29 30 30 30 30 30 30 30 29 30 30 30 30 30 30 30 29 29 28 28 28 27 27 26 25 25 26 26 27 27 28 29 29 29 30 30 30 30 30 31 32 32 33 33 34 35 36 37 38 38 39 39 39 40 41 42 43 44 45 46 47 47 48 48 48 47 47 47 46 46 46 46 46 46 46 46 47 46 45
21 21 21 21 22 25 26 26 26 27 28 29 29 29 30 30 30 31 31 30 30 31 31 30 29 29 29 29 28 28 27 26 27 27 28 28 28 29 29 29 30 31 32 32 32 32 32 33 34 34 35 35 36 37 38 39 39 39 40 40 41 41 42 43 44 45 46 46 46 46 46 46 46 45 46 46 46 45 45 45 45 45 45 45 45 44 43
20 19 19 20 23 27 27 26 26 27 28 28 29 30 30 31 31 32 31 31 31 31 31 30 30 29 29 29 29 28 28 28 28 29 30 30 30 30 30 31 31 32 33 33 34 34 35 35 36 36 36 37 38 38 39 40 40 40 40 41 42 42 43 44 44 45 45 45 45 44 44 44 44 44 44 44 44 44 45 45 44 44 44 43 42 41 40
18 18 19 20 23 26 27 26 26 27 28 29 30 31 32 31 32 32 31 31 31 31 31 31 30 30 30 30 30 29 29 30 30 31 32 32 32 31 32 32 33 33 34 35 35 36 37 37 37 37 38 38 39 40 41 41 41 41 41 42 42 42 43 44 44 45 45 44 44 43 42 42 42 42 42 43 44 44 43 43 42 42 42 42 40 39 39
17 17 18 19 20 23 24 25 26 28 30 30 31 32 32 32 32 31 31 31 32 31 31 31 31 31 31 31 31 31 31 31 32 33 33 34 33 33 33 34 34 35 35 36 37 38 38 38 38 39 40 40 41 41 42 42 42 41 41 42 42 42 43 43 44 44 44 43 42 41 41 40 41 41 41 42 43 43 42 41 40 40 40 39 38 38 37
19 18 18 19 20 22 25 27 29 31 31 31 31 33 33 33 31 30 30 31 31 30 30 30 31 31 32 32 32 32 32 33 34 34 35 35 35 34 35 35 36 36 37 38 38 39 39 39 40 41 42 42 42 42 42 43 42 42 41 41 42 43 43 43 43 43 42 41 40 40 39 39 39 40 40 41 41 41 40 39 39 38 38 37 37 36 36
22 21 21 21 23 24 25 26 27 28 29 30 30 32 32 31 29 29 30 30 29 29 30 30 31 31 31 31 31 31 32 33 34 35 35 36 35 35 36 36 37 38 38 39 39 40 40 40 42 43 43 44 44 43 43 42 42 42 41 41 42 43 43 42 42 42 41 39 38 38 38 37 38 39 40 40 40 39 38 38 38 37 36 36 35 35 34
Wind_Direction
248 247 243 242 247 252 253 252 251 249 255 264 264 257 253 250 254 261 262 263 266 267 271 274 272 271 269 266 268 273 274 270 260 253 253 252 248 244 241 242 249 255 257 258 256 251 249 251 254 258 262 260 254 252 248 244 243 242 239 237 238 239 238 237 236 238 238 242 249 248 245 248 248 241 242 248 247 245 247 249 249 249 249 249 249 250 252
248 250 245 243 247 254 256 256 258 260 261 265 265 261 258 257 259 264 266 267 269 271 273 275 275 275 272 272 272 269 269 272 267 259 256 253 249 247 244 245 251 258 263 264 261 257 255 256 258 262 266 265 261 259 256 249 245 243 240 238 240 241 240 238 237 239 240 240 242 243 242 242 242 243 248 249 242 239 243 247 248 249 249 249 249 248 249
255 264 256 249 249 251 257 259 259 260 260 263 266 262 260 262 264 265 267 270 272 274 275 275 277 277 274 273 273 270 269 272 270 260 254 252 250 246 239 239 248 255 260 264 265 261 257 258 261 264 267 269 267 262 256 253 250 247 244 244 245 245 244 240 238 239 240 239 239 239 240 238 236 239 243 243 239 241 249 251 249 250 251 252 251 248 246
257 272 266 260 255 248 251 259 261 260 259 258 262 263 261 263 264 264 268 272 274 275 275 276 276 276 275 272 270 269 269 269 266 256 249 248 248 247 242 236 240 248 252 256 258 257 256 260 263 265 268 271 273 270 261 255 253 254 252 249 248 249 247 243 240 239 238 238 238 238 238 239 238 239 240 240 239 241 248 252 252 251 253 254 252 250 247
241 288 274 254 255 252 247 251 256 261 262 258 260 265 264 260 261 264 267 270 274 276 276 277 276 274 274 270 267 265 263 261 258 250 245 244 243 245 245 240 239 242 242 243 247 249 252 258 262 266 270 273 275 277 274 267 262 262 262 257 252 252 249 243 240 239 240 239 239 239 239 239 240 240 240 242 243 243 242 245 249 252 255 255 253 253 251
205 235 264 251 252 256 246 244 255 266 268 263 263 264 261 257 258 261 263 267 273 276 276 277 278 275 271 267 265 262 257 254 251 244 241 240 238 239 242 241 240 240 238 237 240 242 244 251 256 260 265 268 271 274 278 276 271 268 266 263 262 263 257 245 238 237 239 241 241 241 240 240 241 242 242 244 246 247 244 243 245 249 252 254 254 255 254
202 194 250 262 258 256 252 250 257 263 265 265 266 265 261 260 262 263 265 270 273 274 277 280 281 279 272 265 261 260 255 251 247 242 238 237 235 234 236 236 234 234 237 239 235 232 232 236 241 247 253 260 267 270 273 277 277 274 270 267 267 271 271 256 239 233 235 238 241 243 243 242 242 243 244 245 247 248 248 247 247 247 248 251 255 257 257
209 206 230 252 260 262 260 255 252 257 264 267 266 267 264 264 267 268 268 271 273 275 280 282 283 282 274 262 255 254 254 250 246 240 236 235 233 231 232 233 232 232 235 235 230 225 225 228 232 239 247 252 257 262 266 269 274 275 272 270 271 273 279 273 246 233 233 237 241 245 248 247 246 245 245 246 246 247 249 249 250 250 249 251 255 258 261
219 223 229 239 262 273 269 261 257 258 263 263 262 265 266 266 267 269 271 272 275 278 281 282 284 282 273 261 252 248 248 247 244 240 237 236 233 230 230 231 231 232 231 229 226 222 221 224 227 232 242 248 249 255 266 270 274 274 270 272 276 276 279 282 257 236 234 239 244 248 251 252 251 248 246 245 245 246 249 250 250 250 249 251 255 259 262
221 232 235 237 249 261 262 263 264 257 256 261 263 264 266 268 267 267 271 274 277 282 286 287 288 286 278 269 257 250 246 244 242 239 239 238 232 229 229 229 231 232 227 223 220 216 216 222 225 227 235 245 246 249 260 270 278 280 277 277 282 279 275 275 265 244 236 238 242 245 248 252 254 253 250 248 248 250 254 254 251 249 250 251 254 258 260
219 234 240 238 240 245 249 255 262 262 260 263 265 265 265 268 269 271 273 275 279 285 290 292 292 291 287 277 263 255 251 247 243 239 238 240 236 231 229 228 229 227 218 211 208 211 217 223 226 227 235 242 244 247 249 251 256 263 262 247 249 261 264 264 265 258 246 241 239 238 241 248 255 258 256 254 253 255 256 255 250 250 252 252 253 259 265
225 234 238 239 244 248 249 251 257 263 264 263 264 265 264 264 267 273 276 277 280 285 289 291 292 292 290 281 268 261 256 251 248 242 240 243 242 238 235 227 218 211 203 199 202 210 217 223 226 231 240 245 248 251 251 252 255 260 261 245 236 247 256 259 264 265 262 259 253 248 255 266 270 270 267 263 259 255 254 253 252 251 254 254 254 259 267
230 237 240 241 247 253 257 259 260 261 263 262 262 263 264 264 265 270 275 279 282 286 289 291 293 295 293 283 272 267 262 257 255 251 247 248 246 243 240 230 213 198 191 193 204 215 221 226 230 234 239 243 247 252 254 257 260 264 271 273 263 259 260 262 266 266 265 266 263 261 270 282 285 285 285 283 276 265 256 253 253 254 255 256 256 256 261
229 234 239 244 251 254 254 255 257 258 261 264 264 263 264 264 265 267 272 277 283 287 288 290 295 297 294 284 274 268 264 261 260 259 256 252 249 244 239 234 227 217 205 201 208 216 219 220 224 229 235 238 239 244 252 258 261 261 265 269 270 270 268 266 266 264 264 266 267 268 275 282 287 289 290 291 290 286 276 263 255 252 252 252 253 252 253
234 236 237 237 247 252 251 249 253 256 259 264 266 266 265 266 269 272 273 276 282 287 288 292 298 298 291 284 277 270 266 262 259 259 258 254 250 247 241 239 245 249 239 222 212 209 210 214 221 228 235 238 240 244 248 254 258 259 259 261 262 263 265 267 268 268 267 269 271 274 278 281 284 286 287 288 289 288 288 283 271 259 251 247 250 250 248
230 236 235 231 237 247 252 253 255 257 260 263 263 264 265 267 270 273 276 281 286 288 289 293 298 297 292 289 283 273 265 259 255 253 254 251 247 245 242 240 243 247 240 227 216 210 210 216 225 231 238 242 244 247 249 252 256 257 257 257 257 257 259 262 264 267 269 270 272 274 276 279 281 282 282 284 285 285 288 288 284 279 271 262 262 263 259
221 230 235 234 237 246 254 256 258 261 263 263 262 262 263 264 266 270 275 282 286 288 288 292 296 299 297 292 284 275 266 259 254 250 249 248 243 239 236 232 231 232 229 223 220 219 219 223 229 235 241 246 248 249 250 251 253 254 253 254 255 256 258 259 260 261 264 267 268 269 271 273 275 278 279 279 281 282 284 286 286 285 285 281 278 278 275
239 243 246 242 242 249 254 255 256 258 260 261 261 261 261 263 266 270 272 276 281 286 288 291 294 296 294 289 283 278 271 263 256 250 248 245 240 235 232 229 227 225 223 222 225 229 229 229 232 237 242 247 251 251 251 251 252 251 250 251 252 254 256 258 259 260 261 263 265 267 269 270 270 273 274 275 276 277 277 280 282 282 284 284 282 281 280
244 246 247 245 246 251 254 255 256 257 259 259 260 261 261 263 267 271 273 273 274 276 279 282 286 288 289 290 288 283 278 272 264 256 249 245 241 234 230 229 229 228 228 229 232 234 234 234 235 239 243 247 250 251 253 253 252 250 249 250 251 252 254 256 257 259 260 263 265 267 268 270 271 272 273 273 274 274 274 275 276 277 277 279 278 278 277
243 246 246 247 249 253 255 257 258 258 260 261 263 264 264 265 268 273 276 277 276 274 273 275 279 285 289 291 288 283 278 274 271 266 257 250 246 239 232 229 228 228 230 232 235 236 237 238 239 241 243 246 249 252 255 256 255 252 250 250 251 253 255 256 256 258 260 262 265 268 270 272 272 273 274 275 275 275 274 273 272 272 272 272 272 273 272
246 249 249 248 250 254 257 258 258 258 259 262 265 265 264 266 269 272 273 276 278 278 276 275 278 282 286 288 285 279 273 268 267 268 265 258 253 248 241 235 232 229 229 230 232 233 235 238 240 242 245 247 249 251 254 256 257 255 252 252 253 254 257 259 259 260 261 262 265 269 271 274 275 276 277 277 277 276 276 273 271 270 269 267 267 267 267
251 254 251 248 249 252 254 256 257 258 258 260 262 262 261 263 265 267 268 271 274 276 276 275 275 275 275 278 279 275 270 265 262 262 263 261 257 253 248 243 239 237 234 232 232 233 234 237 242 245 248 250 249 249 250 253 256 257 256 255 256 257 258 261 262 263 264 265 266 269 271 273 275 277 278 278 278 278 278 278 276 273 270 268 266 265 265
249 252 251 250 250 251 253 256 257 257 257 257 259 258 257 258 259 261 263 266 269 272 271 268 268 268 268 270 272 272 269 265 259 256 256 257 256 253 250 246 242 240 239 237 237 237 237 239 243 248 250 251 249 247 247 249 253 257 259 259 258 258 259 261 263 265 267 267 268 270 271 273 274 276 277 278 279 280 280 281 281 280 278 275 273 270 269
251 253 253 254 255 255 255 258 259 258 257 256 255 254 254 255 256 257 260 264 267 268 268 267 266 266 267 267 267 267 266 263 259 255 251 250 252 250 248 246 242 240 240 240 239 239 239 240 244 247 248 248 248 247 248 249 252 256 259 260 260 260 260 261 263 265 268 269 270 270 271 273 274 276 277 278 279 280 281 282 282 283 282 282 280 279 277
257 257 256 255 257 259 259 259 259 258 256 253 251 251 253 253 253 254 258 262 265 265 265 266 265 264 264 265 264 263 263 262 261 258 250 245 244 243 241 239 237 236 235 235 236 238 239 239 241 242 243 245 245 245 246 248 251 254 256 259 261 262 262 263 264 265 267 269 271 271 272 274 275 276 279 280 281 282 283 284 284 285 285 286 285 285 283
259 261 259 255 254 257 259 258 255 254 253 250 249 250 252 252 251 252 256 258 259 261 261 261 260 259 260 261 262 263 264 262 260 258 252 246 242 239 235 233 232 230 227 227 228 230 232 233 234 235 236 239 240 241 243 245 247 250 253 256 259 262 265 267 268 270 271 272 274 275 276 277 277 278 279 281 282 283 285 285 286 286 287 287 287 287 287
261 265 262 255 251 254 257 256 254 252 250 247 246 248 250 250 248 249 252 253 254 256 258 258 257 257 257 259 260 260 260 259 256 253 250 246 244 241 236 232 230 229 227 225 225 225 226 228 229 229 231 234 236 239 242 244 247 250 253 257 260 264 267 271 273 274 276 277 278 279 280 281 282 282 283 283 283 284 285 286 286 287 287 288 287 287 288
258 261 260 254 251 254 257 254 250 248 245 244 245 248 249 249 247 247 248 248 248 251 253 254 255 256 256 255 254 254 254 253 252 249 247 245 245 244 240 235 233 231 230 228 227 226 227 229 231 232 234 237 239 243 245 248 252 255 258 261 264 266 268 271 273 275 276 277 279 280 281 283 283 284 285 285 285 284 284 285 285 285 285 286 286 287 287
254 257 257 252 249 251 254 252 248 245 242 241 244 248 249 248 246 245 245 245 244 245 248 251 253 254 254 252 250 249 249 249 249 248 246 244 243 244 242 240 238 237 237 237 235 231 231 232 233 235 237 239 243 247 250 252 256 259 260 263 264 265 266 267 270 273 275 277 279 280 281 283 285 286 286 286 286 286 285 284 284 284 284 283 284 285 286
255 255 254 250 247 248 249 250 249 245 240 238 242 247 249 248 245 245 246 245 241 240 243 247 250 251 251 250 248 247 246 248 249 249 247 246 246 246 245 244 244 244 245 245 243 241 240 239 239 241 243 244 246 249 251 253 254 255 256 257 257 259 262 264 268 272 276 279 283 285 286 287 288 288 289 289 288 288 288 287 286 286 285 284 283 283 285
254 253 252 251 249 248 247 246 246 244 239 236 239 243 246 246 245 245 246 244 239 235 236 240 242 244 245 245 245 243 243 245 247 248 249 250 251 251 250 249 249 249 249 250 250 249 249 248 247 248 248 247 246 247 249 250 251 252 254 256 259 262 265 267 270 274 277 280 282 285 286 289 290 291 292 291 290 290 290 289 289 288 288 287 287 285 284
250 251 252 252 250 248 245 243 242 241 237 235 236 240 243 244 243 242 241 239 235 233 235 236 238 239 240 242 243 244 245 248 250 251 253 254 255 255 254 252 251 250 250 250 251 250 249 249 247 246 246 245 246 247 250 253 256 258 260 263 265 268 270 273 276 279 281 282 283 283 285 288 290 292 293 293 294 294 293 293 293 293 292 291 292 291 290
254 255 256 253 249 248 246 242 239 237 234 232 233 236 239 241 240 238 235 232 229 230 233 236 238 238 238 239 242 244 247 249 251 252 253 255 257 260 261 259 258 255 251 249 248 247 245 246 245 244 245 248 250 253 256 258 261 264 266 268 270 271 273 276 279 281 283 284 285 286 288 290 293 294 295 295 295 296 296 297 297 297 296 296 296 296 295
258 257 256 252 247 245 244 241 237 234 232 230 230 233 236 237 237 235 231 227 225 227 229 232 235 238 238 239 239 240 242 243 245 247 249 251 254 257 258 259 259 258 255 253 252 250 249 251 252 252 253 255 257 260 264 267 270 273 275 275 276 277 278 279 281 283 284 286 287 289 291 294 296 297 297 297 296 296 296 297 297 297 297 297 298 297 297
257 256 257 253 245 239 237 236 235 233 231 230 229 231 233 234 234 232 229 226 224 226 229 231 234 237 240 242 244 244 245 245 246 247 248 251 254 256 257 258 259 259 259 259 258 258 259 260 259 258 259 261 264 269 274 277 279 280 279 280 280 281 282 283 284 285 286 287 289 291 293 295 296 297 296 296 296 296 296 295 295 295 296 296 296 296 296
258 258 257 252 243 236 235 236 236 235 232 230 228 230 232 232 232 231 229 226 225 227 230 232 235 239 242 246 248 250 250 250 251 251 252 254 255 256 258 259 260 261 263 263 262 263 265 264 263 263 265 267 270 274 277 279 280 281 282 282 283 283 284 284 285 286 287 289 291 293 295 296 297 297 297 296 296 296 297 297 296 296 296 295 295 295 295
258 259 258 251 242 237 235 233 234 236 235 231 228 228 230 231 231 231 229 227 226 227 231 233 236 241 245 249 252 253 253 252 253 254 255 256 258 259 262 265 266 267 267 267 267 268 270 269 268 269 271 271 272 274 276 279 281 282 283 283 283 284 284 285 286 287 289 291 292 294 295 296 297 297 297 298 298 298 298 298 298 298 297 297 296 295 294
256 257 253 247 242 238 235 232 234 238 237 232 227 225 227 229 231 232 231 228 226 227 231 235 237 241 247 252 254 254 253 252 253 255 257 259 261 263 265 266 267 268 268 269 270 272 273 272 273 274 275 275 276 278 280 282 283 284 284 284 285 286 287 287 288 289 290 291 293 294 295 296 296 297 298 298 298 298 298 298 298 298 298 298 297 297 296
256 255 249 245 244 243 240 237 236 235 234 231 229 227 227 228 230 232 231 230 228 229 232 234 236 239 246 252 253 252 251 251 253 255 258 259 260 260 260 262 264 265 265 267 270 271 271 272 274 275 277 279 282 284 285 285 286 286 287 287 288 288 289 289 289 290 291 292 293 294 295 296 296 297 297 298 298 298 299 299 299 299 299 298 298 298 297
254 252 249 249 248 246 242 238 234 230 230 232 232 230 228 227 229 231 231 230 229 230 232 234 235 237 242 247 249 249 249 249 250 253 255 257 258 259 260 262 265 267 267 267 267 267 269 273 275 277 278 281 282 283 284 286 286 287 288 288 288 289 289 289 290 290 291 292 293 294 294 295 296 297 297 298 298 299 299 299 299 299 299 299 299 298 297
250 250 250 251 249 246 244 239 232 226 226 228 227 225 224 225 227 229 231 231 230 231 232 234 235 237 241 245 247 247 248 249 250 253 256 260 263 265 266 268 271 273 274 276 276 275 275 277 278 278 279 281 282 283 284 285 286 287 287 288 289 289 289 290 290 291 292 293 293 294 294 295 296 296 297 298 299 299 300 300 300 300 300 299 299 298 297
248 249 250 249 245 243 240 234 224 219 219 221 222 222 224 226 227 229 231 232 232 233 234 235 236 239 242 245 247 249 250 252 254 257 261 265 268 270 272 274 275 276 278 281 282 283 283 284 283 282 282 283 283 284 285 286 287 288 289 289 290 290 290 291 291 292 292 293 293 293 294 295 296 297 298 299 299 300 300 300 300 300 300 299 299 298 297
251 252 253 251 244 237 229 225 224 226 227 227 227 228 228 228 229 231 233 233 233 234 236 237 239 241 243 246 249 251 253 255 258 261 265 269 271 272 272 273 275 277 279 281 283 284 286 287 285 285 285 286 286 287 288 289 289 290 290 290 291 291 291 291 292 292 292 292 293 294 295 296 297 298 298 299 300 300 301 301 300 300 300 299 298 297 296
250 252 253 251 245 237 229 227 230 233 233 230 230 231 232 231 232 232 233 234 235 236 238 239 241 243 245 247 250 253 256 258 261 264 267 270 272 273 272 273 275 278 280 282 283 284 286 286 286 286 287 288 288 289 290 291 291 291 290 290 291 291 291 291 292 292 292 293 294 295 296 297 298 299 299 300 300 301 301 301 300 300 299 299 298 297 297
247 247 248 247 243 235 228 225 227 229 229 228 228 229 231 232 232 233 234 235 236 237 239 241 242 244 246 249 251 254 257 260 263 266 268 269 270 272 274 276 278 280 280 281 281 283 284 285 286 287 288 289 290 291 291 291 291 290 290 290 290 291 291 291 292 292 293 294 295 296 297 298 299 300 300 301 301 302 302 301 301 300 300 299 299 298 298
244 242 243 244 237 224 217 218 222 226 227 227 227 229 231 232 234 235 235 236 238 239 240 242 243 245 248 251 253 256 258 261 264 266 267 267 269 272 275 278 280 281 281 281 282 283 284 285 286 288 289 290 290 291 291 291 291 291 291 291 291 291 291 292 293 294 295 296 297 298 299 300 300 301 301 302 302 302 302 301 301 301 300 300 299 298 298
240 237 239 238 227 216 216 223 229 229 229 229 229 231 232 233 234 236 236 237 238 240 242 244 245 248 250 253 255 258 260 263 264 265 266 268 270 272 274 277 279 280 281 282 283 283 284 285 287 288 289 290 291 291 292 292 292 292 291 291 291 291 292 293 294 295 296 297 298 299 300 300 301 302 302 302 302 302 302 302 302 301 301 300 299 298 297
231 232 235 231 222 221 229 235 235 231 231 232 232 232 232 233 234 236 238 238 239 241 243 245 248 250 252 255 258 260 262 263 264 265 266 267 269 272 275 277 279 280 281 282 282 283 284 285 286 288 289 290 292 292 293 293 292 292 291 291 291 292 293 294 295 296 297 298 299 299 300 301 302 302 302 302 302 303 303 303 302 302 302 301 299 298 297
224 230 235 232 228 232 239 242 238 233 232 232 231 232 233 234 235 237 238 239 241 243 245 247 250 252 255 258 260 262 263 263 264 265 267 268 270 274 277 278 279 281 281 282 282 283 284 285 286 288 290 291 292 293 293 293 292 291 291 291 291 292 293 294 295 297 297 297 298 299 300 301 302 302 302 302 302 303 303 303 303 303 303 302 300 298 297
231 235 239 240 238 240 242 242 238 235 232 231 231 232 233 234 235 237 239 241 243 245 247 249 252 255 257 259 261 263 265 265 266 267 269 271 273 275 277 279 280 281 281 281 282 283 284 285 287 289 290 291 292 293 293 293 292 291 290 291 292 293 294 295 296 296 297 297 298 299 300 301 301 301 301 302 303 303 303 304 304 305 305 303 300 298 298
241 242 244 244 243 242 242 241 239 235 231 229 229 231 233 234 236 239 242 244 246 248 250 253 255 256 258 260 263 265 267 268 269 270 272 273 275 276 278 279 279 280 280 281 282 283 284 286 288 289 290 291 292 294 293 292 291 290 290 291 292 293 294 295 295 296 296 297 299 300 300 300 300 300 301 302 303 303 303 305 306 307 306 303 301 299 298
248 248 246 244 242 244 246 246 242 237 233 230 230 232 234 236 238 241 244 247 250 251 252 255 257 259 261 264 266 267 268 269 270 272 273 275 276 277 278 278 279 280 281 282 282 284 286 288 289 289 290 291 293 293 293 291 290 290 290 292 293 294 294 295 295 296 296 297 298 298 298 298 298 300 301 303 303 303 304 306 308 308 307 304 302 301 300
Height
5844 5844 5844 5845 5844 5845 5845 5845 5846 5846 5846 5845 5845 5846 5846 5845 5845 5844 5844 5845 5845 5845 5845 5845 5845 5847 5848 5849 5849 5848 5848 5849 5849 5851 5853 5854 5854 5856 5859 5862 5861 5860 5861 5863 5864 5866 5868 5870 5871 5872 5873 5873 5875 5876 5876 5877 5878 5880 5882 5885 5887 5888 5891 5892 5894 5896 5897 5898 5898 5899 5901 5902 5903 5904 5905 5907 5908 5907 5908 5910 5911 5912 5913 5914 5914 5914 5915
5842 5842 5840 5841 5842 5842 5842 5842 5843 5844 5843 5843 5843 5843 5843 5843 5844 5843 5842 5843 5843 5843 5843 5842 5842 5843 5845 5845 5846 5845 5846 5847 5848 5849 5851 5853 5853 5854 5856 5858 5859 5859 5860 5862 5862 5864 5865 5867 5868 5869 5870 5871 5872 5873 5873 5874 5875 5877 5879 5881 5884 5885 5888 5890 5893 5894 5895 5895 5895 5895 5897 5899 5900 5902 5903 5904 5904 5905 5906 5907 5908 5909 5910 5911 5911 5912 5912
5839 5838 5838 5838 5839 5840 5840 5840 5841 5841 5841 5841 5841 5840 5840 5841 5841 5840 5839 5840 5841 5841 5840 5838 5838 5839 5840 5841 5842 5842 5842 5844 5846 5847 5848 5850 5851 5851 5853 5854 5855 5856 5859 5860 5861 5862 5863 5864 5865 5865 5866 5868 5869 5870 5871 5872 5873 5875 5877 5879 5880 5882 5884 5887 5889 5890 5891 5892 5893 5893 5893 5894 5895 5897 5899 5900 5900 5902 5903 5905 5906 5906 5907 5908 5908 5909 5909
5836 5836 5836 5836 5836 5837 5838 5838 5838 5838 5838 5839 5838 5837 5839 5839 5838 5837 5837 5837 5838 5838 5837 5836 5836 5836 5836 5837 5837 5838 5839 5840 5842 5843 5844 5846 5847 5849 5851 5852 5852 5852 5854 5856 5857 5859 5860 5861 5862 5862 5863 5864 5865 5866 5868 5869 5871 5872 5874 5876 5877 5879 5880 5882 5885 5886 5886 5888 5889 5890 5890 5890 5891 5893 5895 5896 5897 5898 5900 5901 5903 5903 5904 5905 5905 5906 5906
5835 5835 5835 5835 5834 5834 5835 5836 5835 5835 5835 5836 5836 5835 5836 5837 5835 5835 5835 5835 5835 5835 5834 5834 5833 5833 5834 5834 5834 5835 5835 5836 5838 5840 5841 5842 5843 5845 5847 5849 5849 5849 5850 5852 5854 5855 5857 5859 5859 5860 5860 5861 5862 5863 5864 5866 5867 5869 5870 5872 5874 5875 5876 5878 5880 5881 5882 5883 5884 5885 5886 5887 5887 5889 5891 5892 5893 5894 5896 5897 5899 5901 5901 5901 5902 5902 5903
5832 5834 5833 5833 5833 5832 5832 5832 5833 5833 5833 5833 5833 5833 5833 5833 5833 5833 5832 5832 5833 5832 5831 5831 5830 5830 5831 5831 5831 5832 5832 5832 5834 5836 5837 5838 5840 5841 5842 5844 5846 5847 5848 5850 5852 5853 5854 5856 5857 5857 5858 5859 5860 5861 5862 5862 5864 5865 5867 5868 5870 5871 5872 5873 5874 5876 5877 5878 5879 5880 5881 5882 5884 5886 5887 5888 5889 5891 5892 5892 5893 5895 5897 5898 5898 5898 5898
5828 5830 5831 5831 5831 5830 5829 5830 5831 5830 5830 5831 5831 5831 5830 5830 5830 5830 5830 5830 5830 5829 5828 5828 5828 5827 5827 5828 5828 5829 5829 5829 5830 5832 5833 5835 5836 5837 5838 5841 5844 5846 5847 5848 5849 5850 5852 5853 5854 5855 5856 5857 5858 5859 5860 5860 5860 5861 5863 5864 5866 5867 5868 5868 5869 5870 5872 5873 5874 5875 5877 5878 5880 5882 5884 5884 5885 5886 5888 5888 5888 5889 5892 5894 5895 5894 5894
5825 5826 5827 5829 5829 5827 5827 5827 5827 5827 5828 5828 5829 5828 5828 5828 5828 5827 5828 5828 5827 5826 5826 5825 5825 5825 5824 5825 5825 5825 5826 5826 5827 5828 5830 5831 5832 5833 5835 5838 5840 5842 5843 5845 5846 5848 5850 5851 5852 5853 5854 5855 5856 5857 5857 5857 5857 5858 5859 5861 5862 5863 5863 5863 5864 5865 5867 5869 5870 5872 5874 5875 5876 5878 5879 5880 5881 5882 5883 5884 5885 5886 5888 5889 5890 5890 5890
5822 5823 5824 5826 5827 5826 5825 5824 5824 5825 5825 5825 5826 5825 5825 5826 5826 5825 5825 5825 5824 5823 5823 5822 5822 5822 5822 5822 5822 5822 5822 5823 5824 5825 5826 5828 5829 5830 5832 5834 5836 5838 5839 5840 5842 5844 5846 5848 5849 5850 5851 5852 5853 5853 5853 5853 5854 5855 5856 5858 5859 5860 5860 5859 5860 5861 5863 5865 5867 5869 5870 5870 5872 5874 5875 5876 5877 5877 5878 5879 5881 5883 5884 5885 5886 5887 5887
5819 5821 5822 5823 5824 5824 5823 5821 5821 5822 5822 5822 5823 5823 5822 5823 5823 5822 5822 5822 5820 5821 5821 5820 5819 5819 5819 5819 5819 5819 5819 5820 5821 5822 5823 5825 5826 5827 5829 5831 5833 5834 5833 5835 5838 5841 5843 5845 5846 5847 5848 5849 5850 5850 5850 5850 5851 5852 5854 5856 5857 5856 5855 5856 5857 5858 5859 5861 5862 5864 5865 5866 5867 5868 5870 5871 5872 5873 5874 5875 5877 5878 5880 5881 5883 5884 5883
5816 5818 5819 5820 5821 5820 5819 5820 5819 5819 5820 5820 5820 5820 5820 5820 5820 5819 5819 5818 5817 5818 5819 5819 5818 5817 5816 5816 5816 5816 5816 5817 5818 5819 5820 5822 5823 5825 5827 5827 5828 5829 5829 5831 5835 5837 5840 5842 5843 5844 5845 5846 5847 5847 5848 5849 5850 5850 5852 5855 5854 5852 5851 5853 5854 5856 5857 5858 5859 5860 5861 5862 5863 5864 5865 5866 5867 5868 5869 5871 5872 5874 5876 5877 5878 5879 5880
5813 5814 5816 5818 5818 5815 5815 5817 5817 5816 5817 5818 5818 5817 5817 5818 5819 5817 5815 5815 5815 5817 5817 5817 5816 5815 5814 5814 5813 5813 5814 5815 5815 5816 5817 5819 5821 5823 5824 5824 5823 5824 5826 5829 5832 5834 5837 5839 5840 5840 5841 5842 5843 5844 5845 5847 5848 5849 5850 5851 5851 5850 5850 5850 5852 5853 5855 5856 5857 5857 5858 5859 5860 5861 5861 5862 5862 5863 5864 5866 5868 5870 5872 5873 5875 5875 5875
5811 5812 5813 5815 5815 5812 5812 5814 5813 5813 5815 5815 5815 5815 5814 5815 5816 5815 5813 5812 5813 5814 5815 5814 5813 5812 5812 5811 5811 5811 5812 5812 5813 5813 5814 5816 5818 5820 5822 5822 5821 5821 5822 5825 5828 5831 5833 5835 5836 5837 5838 5839 5841 5842 5842 5843 5845 5845 5846 5847 5847 5848 5848 5848 5848 5849 5851 5852 5854 5854 5855 5856 5858 5858 5859 5859 5859 5859 5860 5861 5863 5865 5867 5869 5870 5870 5870
5808 5809 5811 5813 5812 5809 5810 5811 5810 5811 5813 5812 5812 5813 5812 5811 5813 5813 5812 5811 5811 5812 5812 5812 5811 5810 5809 5809 5809 5809 5810 5810 5810 5811 5811 5813 5815 5817 5818 5820 5820 5820 5820 5822 5825 5827 5829 5831 5833 5834 5836 5837 5838 5839 5840 5841 5841 5842 5843 5844 5845 5845 5845 5845 5846 5846 5847 5848 5849 5850 5851 5852 5854 5855 5856 5856 5856 5857 5857 5858 5859 5860 5862 5863 5864 5864 5865
5806 5807 5809 5810 5808 5805 5806 5808 5808 5809 5811 5810 5810 5810 5809 5808 5809 5809 5809 5809 5808 5809 5809 5809 5809 5808 5807 5807 5807 5808 5808 5808 5808 5809 5809 5810 5812 5813 5815 5816 5818 5818 5819 5820 5822 5824 5826 5828 5830 5832 5834 5835 5836 5837 5838 5838 5839 5840 5840 5841 5842 5842 5842 5843 5843 5843 5844 5845 5845 5846 5847 5848 5849 5851 5852 5853 5853 5854 5855 5855 5856 5857 5858 5858 5859 5859 5860
5805 5806 5806 5805 5804 5803 5803 5805 5806 5807 5808 5808 5808 5808 5807 5806 5806 5806 5805 5806 5806 5806 5805 5805 5806 5806 5806 5806 5806 5806 5806 5806 5806 5807 5807 5808 5809 5811 5812 5813 5815 5816 5817 5818 5820 5822 5824 5826 5828 5830 5831 5833 5834 5835 5835 5836 5837 5838 5838 5839 5839 5839 5839 5840 5840 5841 5841 5841 5842 5843 5843 5844 5845 5846 5848 5849 5850 5850 5851 5852 5853 5853 5854 5854 5855 5855 5855
5801 5801 5800 5800 5801 5801 5801 5802 5803 5804 5805 5805 5805 5806 5805 5804 5804 5804 5804 5804 5804 5803 5803 5802 5803 5803 5804 5804 5804 5804 5804 5804 5805 5805 5805 5806 5807 5808 5810 5811 5813 5814 5816 5818 5819 5821 5822 5824 5826 5827 5829 5830 5831 5832 5833 5833 5834 5835 5835 5836 5836 5836 5837 5837 5837 5838 5838 5838 5839 5840 5840 5841 5842 5843 5843 5844 5845 5846 5847 5848 5849 5850 5850 5850 5851 5851 5851
5798 5797 5797 5798 5799 5799 5799 5799 5801 5802 5802 5803 5803 5803 5803 5802 5802 5802 5803 5803 5802 5802 5801 5800 5800 5801 5802 5802 5802 5802 5801 5802 5802 5803 5803 5804 5806 5807 5808 5809 5811 5812 5814 5816 5817 5819 5820 5822 5823 5824 5826 5827 5829 5829 5830 5831 5831 5832 5832 5833 5833 5834 5834 5834 5834 5835 5835 5836 5836 5837 5837 5838 5839 5839 5840 5841 5841 5842 5843 5843 5844 5845 5846 5847 5847 5847 5847
5795 5794 5795 5797 5797 5796 5796 5797 5798 5799 5800 5800 5801 5801 5801 5800 5800 5800 5800 5801 5801 5800 5800 5799 5799 5799 5799 5800 5800 5799 5799 5799 5800 5801 5801 5802 5803 5805 5806 5807 5808 5810 5811 5813 5814 5816 5818 5819 5820 5821 5823 5824 5825 5826 5827 5828 5828 5829 5829 5830 5830 5831 5831 5831 5832 5832 5832 5833 5833 5834 5834 5835 5835 5836 5837 5837 5838 5838 5839 5839 5840 5841 5842 5842 5843 5843 5843
5792 5792 5793 5794 5794 5794 5794 5794 5796 5796 5797 5797 5798 5798 5798 5798 5798 5798 5797 5797 5797 5798 5798 5798 5797 5797 5797 5797 5797 5797 5797 5797 5798 5798 5799 5800 5801 5802 5803 5805 5806 5807 5808 5809 5811 5812 5814 5816 5817 5818 5820 5821 5822 5823 5824 5824 5825 5826 5826 5826 5827 5827 5828 5828 5828 5829 5830 5830 5830 5831 5831 5832 5832 5833 5833 5834 5835 5835 5836 5836 5836 5837 5837 5838 5838 5839 5839
5789 5790 5791 5792 5792 5791 5791 5791 5793 5794 5794 5795 5796 5796 5796 5796 5796 5796 5795 5795 5795 5794 5794 5795 5795 5795 5794 5794 5795 5795 5796 5796 5796 5797 5797 5797 5798 5799 5800 5801 5802 5804 5805 5806 5808 5809 5811 5812 5814 5815 5816 5817 5818 5819 5820 5821 5821 5822 5822 5823 5823 5824 5824 5825 5825 5826 5826 5827 5827 5828 5828 5829 5829 5830 5830 5830 5831 5832 5832 5833 5833 5833 5834 5834 5834 5835 5835
5787 5787 5788 5789 5789 5789 5788 5788 5790 5791 5791 5792 5793 5793 5794 5794 5793 5793 5794 5793 5793 5793 5793 5793 5793 5793 5793 5793 5793 5794 5794 5795 5795 5795 5795 5796 5796 5796 5797 5798 5799 5800 5802 5803 5805 5806 5807 5809 5810 5812 5813 5814 5815 5815 5816 5817 5818 5818 5819 5820 5820 5821 5821 5822 5822 5823 5823 5824 5824 5825 5825 5825 5825 5826 5826 5827 5827 5827 5828 5828 5829 5829 5830 5830 5830 5830 5830
5784 5784 5784 5785 5785 5786 5785 5785 5787 5788 5788 5789 5790 5791 5791 5791 5792 5792 5792 5792 5792 5792 5792 5791 5791 5792 5792 5792 5792 5792 5793 5793 5793 5794 5794 5794 5794 5795 5795 5796 5796 5797 5798 5799 5801 5802 5804 5805 5807 5808 5809 5810 5811 5812 5813 5814 5815 5815 5816 5817 5817 5818 5818 5819 5819 5820 5820 5821 5821 5821 5822 5822 5822 5822 5822 5823 5823 5823 5824 5824 5824 5824 5824 5825 5825 5826 5826
5780 5781 5782 5783 5783 5783 5783 5783 5784 5785 5785 5786 5788 5789 5789 5789 5790 5790 5790 5790 5790 5790 5790 5790 5790 5790 5790 5790 5791 5791 5791 5792 5792 5793 5793 5793 5793 5794 5794 5794 5795 5795 5796 5797 5798 5799 5800 5802 5803 5805 5806 5807 5808 5809 5810 5811 5812 5813 5813 5814 5814 5815 5815 5816 5817 5817 5818 5818 5819 5819 5819 5819 5819 5819 5819 5819 5820 5820 5820 5819 5819 5819 5819 5820 5820 5820 5820
5778 5779 5780 5781 5780 5780 5780 5781 5782 5782 5783 5784 5785 5786 5787 5787 5788 5788 5788 5789 5789 5789 5789 5789 5788 5788 5788 5789 5789 5790 5790 5790 5791 5792 5792 5792 5792 5792 5793 5793 5794 5794 5795 5796 5796 5797 5798 5799 5801 5802 5803 5805 5806 5807 5808 5808 5809 5810 5810 5811 5811 5812 5813 5813 5814 5814 5815 5815 5816 5816 5816 5816 5816 5816 5816 5816 5816 5816 5816 5815 5815 5815 5815 5815 5815 5815 5815
5775 5776 5777 5779 5778 5777 5778 5779 5779 5779 5780 5782 5783 5784 5785 5785 5786 5786 5787 5787 5787 5787 5787 5787 5787 5787 5787 5788 5788 5788 5789 5789 5790 5790 5791 5791 5791 5791 5792 5792 5793 5793 5794 5795 5795 5796 5797 5797 5798 5800 5801 5802 5803 5804 5805 5806 5806 5807 5808 5808 5808 5809 5809 5810 5810 5811 5812 5812 5812 5813 5813 5813 5813 5813 5813 5813 5813 5813 5812 5812 5811 5811 5811 5810 5810 5810 5810
5772 5773 5774 5775 5775 5775 5776 5777 5777 5777 5778 5780 5781 5782 5783 5783 5784 5784 5785 5785 5785 5785 5785 5786 5786 5786 5786 5786 5787 5787 5787 5788 5788 5789 5789 5790 5790 5790 5791 5791 5792 5792 5793 5793 5794 5795 5795 5796 5797 5797 5799 5800 5801 5801 5802 5803 5803 5804 5805 5805 5806 5806 5806 5807 5807 5807 5808 5808 5809 5809 5809 5809 5810 5810 5810 5810 5810 5810 5809 5808 5808 5808 5807 5806 5805 5805 5805
5769 5770 5770 5772 5772 5772 5773 5774 5775 5775 5776 5777 5778 5779 5780 5781 5782 5782 5782 5783 5783 5783 5783 5784 5784 5784 5785 5785 5785 5786 5786 5787 5787 5787 5788 5788 5788 5789 5789 5790 5790 5791 5791 5792 5793 5793 5794 5794 5795 5796 5796 5797 5798 5799 5799 5800 5800 5801 5802 5802 5803 5803 5804 5804 5804 5804 5805 5805 5805 5806 5806 5806 5806 5806 5806 5806 5806 5806 5805 5805 5805 5804 5804 5803 5801 5801 5800
5766 5766 5767 5769 5769 5769 5770 5771 5772 5772 5773 5774 5776 5777 5778 5779 5779 5779 5780 5780 5781 5782 5782 5782 5783 5783 5783 5783 5784 5784 5785 5785 5786 5786 5786 5787 5787 5787 5788 5788 5789 5789 5790 5790 5791 5792 5792 5793 5793 5794 5794 5795 5796 5796 5797 5797 5798 5798 5799 5799 5800 5800 5801 5801 5801 5801 5802 5802 5802 5802 5803 5803 5803 5802 5802 5802 5801 5801 5801 5801 5800 5800 5800 5799 5798 5797 5796
5763 5763 5764 5765 5766 5766 5768 5769 5769 5770 5771 5772 5773 5774 5776 5777 5777 5777 5778 5779 5780 5780 5781 5781 5781 5781 5782 5782 5783 5783 5783 5784 5784 5784 5784 5785 5785 5785 5786 5786 5787 5787 5788 5788 5789 5790 5790 5791 5792 5792 5793 5793 5794 5794 5794 5795 5795 5796 5796 5797 5797 5798 5798 5798 5798 5799 5799 5799 5799 5799 5799 5799 5799 5799 5798 5798 5797 5796 5796 5796 5795 5795 5794 5794 5794 5794 5792
5759 5761 5762 5762 5763 5764 5765 5766 5766 5767 5768 5770 5771 5772 5773 5774 5775 5775 5776 5777 5778 5779 5779 5780 5780 5780 5780 5781 5781 5782 5782 5782 5782 5783 5783 5783 5783 5783 5784 5784 5785 5785 5786 5786 5787 5787 5788 5789 5790 5790 5790 5791 5792 5792 5793 5793 5793 5794 5794 5795 5795 5795 5795 5795 5796 5796 5796 5796 5796 5796 5796 5795 5795 5794 5794 5793 5792 5792 5791 5790 5790 5790 5789 5788 5788 5788 5787
5756 5758 5758 5759 5760 5761 5762 5763 5763 5764 5766 5767 5768 5770 5771 5772 5773 5774 5774 5775 5776 5777 5777 5778 5778 5779 5779 5779 5780 5780 5781 5781 5781 5781 5781 5781 5782 5782 5782 5783 5783 5784 5784 5785 5785 5786 5786 5787 5787 5788 5788 5789 5790 5790 5791 5791 5791 5792 5792 5792 5792 5792 5792 5792 5792 5792 5792 5793 5793 5792 5792 5792 5791 5790 5789 5788 5787 5786 5786 5785 5784 5784 5783 5783 5783 5782 5780
5752 5754 5755 5756 5757 5758 5759 5760 5760 5761 5763 5764 5765 5767 5769 5770 5771 5772 5772 5773 5774 5775 5776 5776 5777 5777 5778 5778 5779 5779 5779 5780 5780 5780 5780 5780 5780 5781 5781 5782 5782 5783 5783 5783 5784 5784 5785 5785 5786 5786 5787 5787 5788 5788 5789 5789 5789 5789 5789 5789 5789 5789 5789 5789 5789 5789 5788 5788 5788 5788 5788 5787 5786 5785 5784 5783 5782 5781 5780 5779 5778 5777 5776 5776 5776 5775 5772
5748 5751 5752 5752 5752 5754 5755 5757 5757 5758 5759 5761 5763 5764 5766 5767 5768 5769 5770 5771 5772 5773 5774 5774 5775 5776 5776 5777 5777 5778 5778 5778 5778 5778 5778 5779 5779 5779 5780 5780 5781 5781 5781 5782 5782 5783 5783 5783 5784 5784 5785 5785 5785 5785 5786 5786 5786 5786 5786 5786 5786 5786 5785 5785 5785 5785 5784 5784 5784 5784 5783 5782 5781 5780 5779 5778 5777 5776 5775 5774 5772 5771 5769 5768 5768 5767 5764
5745 5747 5749 5749 5749 5750 5752 5754 5754 5755 5756 5758 5760 5761 5763 5765 5766 5767 5768 5769 5770 5771 5772 5773 5773 5774 5774 5775 5775 5776 5776 5776 5777 5777 5777 5777 5777 5778 5778 5779 5779 5779 5780 5780 5780 5781 5781 5781 5781 5782 5782 5782 5782 5782 5782 5782 5782 5782 5782 5782 5782 5781 5781 5781 5781 5780 5780 5780 5779 5779 5778 5777 5776 5775 5774 5773 5771 5771 5770 5768 5767 5765 5763 5761 5761 5760 5757
5742 5743 5745 5746 5746 5748 5749 5750 5751 5752 5753 5755 5757 5759 5760 5762 5763 5764 5765 5766 5768 5769 5770 5770 5771 5772 5772 5773 5773 5774 5774 5774 5775 5775 5775 5776 5776 5776 5776 5777 5777 5777 5778 5778 5778 5779 5779 5779 5779 5779 5780 5780 5780 5779 5779 5779 5779 5779 5778 5778 5778 5777 5777 5777 5776 5776 5775 5775 5774 5773 5772 5771 5770 5769 5768 5767 5765 5764 5763 5761 5760 5758 5756 5754 5753 5752 5750
5739 5739 5740 5741 5743 5744 5746 5747 5748 5749 5750 5751 5753 5755 5757 5758 5760 5761 5762 5764 5765 5766 5767 5768 5769 5769 5770 5770 5771 5771 5772 5772 5772 5773 5773 5774 5774 5774 5774 5775 5775 5775 5775 5775 5776 5776 5776 5776 5776 5776 5777 5777 5777 5776 5776 5776 5775 5775 5775 5774 5774 5774 5773 5773 5772 5771 5771 5770 5769 5768 5766 5765 5764 5762 5761 5760 5758 5756 5755 5753 5752 5750 5749 5746 5744 5743 5742
5736 5736 5736 5738 5739 5740 5741 5742 5744 5746 5747 5748 5749 5751 5753 5755 5757 5758 5760 5761 5762 5763 5764 5765 5766 5767 5767 5768 5768 5769 5769 5770 5770 5771 5771 5771 5772 5772 5772 5773 5773 5773 5773 5773 5774 5774 5773 5773 5773 5774 5774 5773 5773 5773 5773 5772 5772 5772 5771 5771 5770 5770 5769 5768 5767 5766 5765 5764 5763 5762 5761 5759 5758 5756 5755 5753 5751 5749 5747 5746 5744 5742 5740 5738 5736 5734 5732
5732 5733 5734 5735 5736 5736 5736 5738 5741 5742 5743 5744 5746 5748 5750 5752 5754 5755 5757 5758 5759 5761 5761 5763 5764 5765 5765 5766 5766 5766 5767 5767 5768 5768 5769 5769 5769 5770 5770 5771 5771 5770 5770 5771 5771 5771 5770 5770 5770 5770 5770 5769 5769 5769 5769 5768 5768 5768 5767 5767 5766 5765 5764 5763 5762 5761 5760 5759 5758 5757 5755 5753 5752 5750 5749 5747 5745 5743 5741 5739 5736 5734 5732 5730 5728 5726 5724
5728 5729 5730 5731 5732 5732 5732 5734 5737 5739 5740 5741 5742 5744 5746 5749 5751 5752 5753 5755 5756 5758 5759 5760 5761 5762 5763 5763 5764 5764 5765 5765 5766 5766 5766 5767 5767 5768 5768 5769 5768 5767 5767 5768 5769 5768 5767 5767 5766 5766 5766 5766 5765 5765 5765 5764 5764 5763 5763 5762 5761 5760 5759 5758 5757 5756 5755 5754 5753 5751 5750 5748 5746 5744 5743 5741 5738 5736 5734 5731 5729 5727 5725 5723 5721 5718 5716
5725 5725 5725 5726 5727 5728 5728 5729 5732 5735 5736 5738 5740 5742 5743 5745 5747 5749 5750 5752 5753 5755 5756 5757 5758 5759 5759 5760 5761 5762 5762 5763 5763 5763 5764 5764 5764 5764 5765 5766 5765 5764 5763 5764 5764 5764 5764 5763 5763 5762 5762 5762 5761 5761 5760 5760 5759 5759 5758 5757 5756 5755 5754 5753 5752 5751 5750 5748 5747 5745 5744 5742 5740 5738 5736 5734 5732 5729 5727 5724 5721 5719 5717 5715 5713 5711 5709
5720 5721 5721 5722 5723 5724 5724 5725 5728 5730 5731 5734 5737 5738 5740 5742 5744 5745 5747 5749 5750 5751 5753 5753 5754 5755 5756 5757 5758 5758 5759 5759 5760 5760 5761 5761 5761 5761 5761 5762 5762 5761 5760 5760 5760 5760 5760 5759 5758 5758 5758 5758 5757 5756 5756 5755 5755 5754 5753 5752 5751 5750 5749 5747 5746 5745 5744 5742 5741 5739 5737 5735 5733 5731 5729 5727 5725 5722 5720 5717 5714 5712 5709 5708 5706 5704 5702
5715 5716 5717 5717 5719 5721 5722 5724 5726 5727 5728 5730 5732 5734 5736 5738 5740 5742 5744 5745 5747 5748 5749 5750 5751 5752 5752 5753 5754 5755 5755 5756 5756 5757 5757 5758 5758 5757 5758 5758 5758 5757 5756 5757 5757 5756 5756 5755 5754 5754 5754 5753 5753 5752 5751 5750 5750 5749 5748 5747 5745 5744 5743 5742 5740 5739 5737 5736 5734 5732 5731 5729 5726 5724 5722 5720 5718 5715 5712 5710 5707 5705 5703 5700 5698 5697 5695
5711 5712 5713 5714 5715 5717 5720 5722 5724 5724 5725 5727 5729 5730 5732 5734 5736 5739 5741 5742 5743 5745 5746 5747 5747 5748 5749 5750 5751 5751 5752 5752 5753 5753 5754 5754 5754 5753 5753 5754 5754 5754 5753 5752 5752 5752 5752 5751 5750 5750 5749 5749 5748 5747 5746 5745 5744 5743 5742 5741 5740 5738 5737 5736 5734 5733 5731 5729 5727 5726 5724 5722 5719 5717 5715 5713 5711 5709 5706 5703 5701 5699 5696 5693 5691 5689 5687
5709 5710 5710 5711 5712 5713 5716 5718 5720 5721 5722 5724 5725 5727 5729 5731 5734 5736 5737 5738 5740 5741 5742 5743 5744 5745 5745 5746 5747 5748 5748 5749 5749 5750 5750 5751 5751 5750 5749 5749 5750 5750 5749 5748 5748 5748 5747 5747 5746 5745 5745 5744 5743 5742 5741 5740 5739 5738 5737 5735 5734 5733 5731 5730 5728 5726 5725 5723 5721 5719 5717 5715 5713 5710 5708 5706 5704 5702 5700 5697 5694 5692 5690 5687 5684 5682 5679
5706 5707 5707 5708 5709 5710 5712 5714 5716 5717 5719 5721 5722 5724 5726 5729 5730 5732 5733 5735 5736 5737 5738 5739 5740 5741 5742 5743 5743 5744 5745 5745 5746 5746 5746 5746 5747 5746 5745 5745 5745 5745 5744 5744 5744 5744 5743 5742 5741 5741 5740 5739 5738 5737 5735 5734 5733 5732 5731 5730 5728 5727 5725 5724 5722 5721 5719 5717 5715 5713 5711 5708 5706 5704 5701 5699 5697 5695 5693 5691 5688 5686 5683 5680 5677 5675 5673
5703 5704 5704 5705 5706 5708 5709 5711 5713 5714 5716 5717 5719 5722 5723 5725 5727 5728 5729 5731 5732 5734 5735 5736 5737 5737 5738 5739 5740 5740 5741 5741 5741 5742 5742 5742 5742 5742 5742 5741 5741 5740 5740 5739 5739 5739 5738 5737 5736 5736 5735 5733 5732 5731 5730 5729 5728 5726 5725 5723 5722 5721 5719 5718 5716 5714 5713 5711 5708 5706 5704 5702 5700 5697 5695 5693 5691 5689 5687 5684 5682 5679 5677 5674 5671 5669 5667
5700 5701 5702 5703 5705 5706 5708 5709 5710 5712 5713 5715 5717 5718 5720 5721 5723 5724 5725 5727 5728 5729 5731 5732 5733 5733 5734 5735 5735 5736 5737 5737 5737 5737 5737 5737 5737 5737 5737 5736 5736 5736 5735 5735 5734 5734 5733 5732 5731 5730 5729 5728 5727 5726 5724 5723 5722 5720 5719 5718 5716 5715 5713 5712 5710 5708 5707 5705 5702 5700 5698 5696 5694 5691 5689 5687 5685 5683 5681 5678 5676 5673 5671 5668 5665 5663 5661
5699 5699 5700 5702 5704 5705 5706 5707 5708 5709 5710 5712 5713 5714 5716 5717 5719 5720 5722 5723 5724 5725 5727 5728 5729 5729 5730 5731 5731 5732 5732 5732 5732 5732 5732 5732 5732 5732 5732 5731 5731 5731 5730 5730 5729 5728 5727 5727 5726 5725 5724 5722 5721 5720 5719 5717 5716 5715 5713 5712 5710 5709 5707 5705 5703 5702 5700 5698 5696 5694 5692 5690 5688 5686 5684 5682 5680 5677 5675 5672 5670 5667 5664 5662 5660 5657 5655
5696 5698 5699 5700 5701 5702 5703 5704 5705 5706 5707 5708 5709 5711 5712 5713 5715 5716 5718 5719 5720 5721 5723 5724 5724 5725 5726 5726 5727 5727 5727 5727 5727 5727 5727 5727 5728 5727 5727 5726 5726 5725 5725 5724 5723 5723 5722 5721 5720 5719 5718 5717 5715 5714 5713 5711 5710 5709 5707 5706 5704 5703 5701 5699 5697 5696 5694 5692 5690 5689 5687 5685 5683 5681 5679 5677 5674 5671 5669 5666 5664 5661 5658 5656 5654 5652 5650
5693 5695 5696 5697 5698 5698 5699 5699 5700 5701 5702 5704 5705 5707 5708 5709 5711 5713 5714 5715 5716 5718 5719 5719 5720 5721 5721 5721 5722 5723 5723 5723 5722 5723 5722 5722 5722 5722 5722 5721 5720 5720 5719 5719 5718 5717 5716 5715 5714 5713 5712 5711 5709 5708 5707 5705 5704 5703 5702 5700 5698 5696 5694 5692 5691 5690 5688 5686 5684 5682 5681 5679 5677 5675 5674 5672 5669 5666 5663 5661 5658 5656 5653 5651 5649 5647 5645
5691 5692 5693 5694 5694 5695 5696 5697 5698 5700 5701 5702 5702 5703 5704 5706 5708 5710 5711 5712 5713 5714 5715 5715 5716 5717 5717 5717 5718 5718 5718 5718 5718 5718 5717 5717 5717 5717 5716 5715 5715 5714 5713 5713 5712 5711 5711 5710 5708 5707 5706 5705 5703 5702 5701 5699 5698 5697 5696 5694 5692 5690 5688 5686 5684 5683 5682 5680 5678 5677 5676 5674 5672 5670 5668 5666 5663 5661 5658 5656 5653 5650 5648 5646 5643 5641 5640